Location: Unspecified
(49.2170°N, 0.0000°E)
Time: 12:07:59
(UTC+00:00)

S-56A Canister/Altair - Pass Details

Date: 28 January 2021
Orbit: 631 x 2501 km, 38.9° (Epoch: 05 March)

Event Time Altitude Azimuth Distance (km) Brightness Sun altitude
Exits shadow 05:04:44 17° 186° (S) 1,692 9.2 -24.7°
Drops below altitude 10° 05:07:30 10° 153° (SSE) 2,267 10.2 -24.2°
Sets 05:10:59 0° 134° (SE) 3,431 11.5 -23.7°
